{"data":{"norad_id":52694,"epoch":"2026-05-25T00:38:06.652032Z","epoch_age_seconds":83427,"freshness":"FRESH","line1":"1 52694U 22053AQ  26145.02646588  .00000561  00000+0  53353-4 0  9999","line2":"2 52694  53.2129 161.4329 0001084  73.3200 286.7911 15.08841187222670","mean_motion":15.08841187,"eccentricity":0.0001084,"inclination_deg":53.2129,"raan_deg":161.4329,"arg_perigee_deg":73.32,"mean_anomaly_deg":286.7911,"bstar":5.3353e-5,"rev_number":22267,"period_min":95.437479597381,"perigee_km":538.98986294148,"apogee_km":540.48965862322,"semimajor_km":6917.8767607823,"source":"CELESTRAK","updated_at":"2026-05-25T13:38:17.237041Z"}}